Regional Weather Roundup
Issued by NWS

Home | Current Version | Previous Version | Text Only | Print | Product List | Glossary Off
Versions: 1 2 3 4 5 6 7 8 9 10 11 12 13 14 15 16 17 18 19 20 21 22 23 24 25 26 27 28 29 30 31 32 33 34 35 36 37 38 39 40 41 42 43 44 45 46 47 48 49 50

000
ASUS43 KIND 261059
RWRIN

WEATHER ROUNDUP FOR INDIANA
NATIONAL WEATHER SERVICE INDIANAPOLIS IN
700 AM EDT FRI MAY 26 2017

NOTE: "FAIR" INDICATES FEW OR NO CLOUDS BELOW 12,000 FEET WITH NO
SIGNIFICANT WEATHER AND/OR OBSTRUCTIONS TO VISIBILITY.

* - STATION DOES NOT REPORT WEATHER SUCH AS PRECIPITATION OR FOG.

+ - STATION NOT QUALITY CONTROLLED BY THE NATIONAL WEATHER SERVICE.
    USE DATA WITH CAUTION...ESPECIALLY DEWPOINT AND RELATIVE
    HUMIDITY OBSERVATIONS.

INZ001>003-010>013-019-020-261200-
NORTHWEST INDIANA

CITY           SKY/WX    TMP DP  RH WIND       PRES   REMARKS
GARY /AIRPORT/ MOCLDY    50  50 100 CALM      29.86R
MICHIGAN CITY+ CLOUDY    45  45 100 CALM      29.86R FOG
MONTICELLO +   CLEAR     49  48  95 CALM      29.86R FOG
RENSSELAER +     N/A     50  48  93 CALM      29.87R FOG
VALPARAISO     CLOUDY    52  50  93 W5        29.86R FOG

$$

LMZ046-743>745-261200-
SOUTHERN LAKE MICHIGAN

STATION/POSITION TIME  TEMP    WIND        PRES    WAVE
                       AIR SEA DIR/SP/G            HT
                 (UTC) (F)     (DEG/KT/KT) (MB)    (FT)
BURNS HARBOR     1040   53     200/  4/  5 1011.5R
MICHIGAN CITY    1030   53     130/  1/  2   N/A
5NW MICH CITY    1050   52 51  230/  2/  4   N/A     2

$$

INZ004-005-014>016-021>024-261200-
NORTH CENTRAL INDIANA

CITY           SKY/WX    TMP DP  RH WIND       PRES   REMARKS
ELKHART        CLOUDY    52  50  93 NW7       29.84
GOSHEN         CLOUDY    52  49  89 W7        29.84R FOG
SOUTH BEND     CLEAR     50  50 100 CALM      29.84S

$$

INZ006>009-017-018-025>027-261200-
NORTHEAST INDIANA

CITY           SKY/WX    TMP DP  RH WIND       PRES   REMARKS
ANGOLA *+      CLOUDY    52  43  71 NW6       29.82R VSB 3/4
FORT WAYNE     CLOUDY    53  50  89 W9        29.84R FOG
KENDALLVILLE + CLOUDY    51  51 100 W8        29.84R FOG

$$

INZ028-029-035-036-043>045-051>053-261200-
WEST CENTRAL INDIANA

CITY           SKY/WX    TMP DP  RH WIND       PRES   REMARKS
CRAWFORDSVL +    N/A     49  49 100 CALM      29.88R FOG
GREENCASTLE +  CLOUDY    48  48 100 CALM      29.88R FOG
LAFAYETTE      PTCLDY    49  49 100 CALM      29.86R FOG
TERRE HAUTE    CLOUDY    54  52  93 E3        29.87S FOG

$$

INZ030>032-037>040-046>048-054>057-064-065-261200-
CENTRAL INDIANA

CITY           SKY/WX    TMP DP  RH WIND       PRES   REMARKS
COLUMBUS       CLEAR     50  50 100 CALM      29.88
INDIANAPOLIS   CLOUDY    53  51  93 SW5       29.87R FOG
-EAGLE CREEK   CLOUDY    52  50  93 CALM      29.87R FOG
KOKOMO +       CLEAR     53  52  96 W3        29.87R FOG
SHELBYVILLE    CLOUDY    53  50  89 S6        29.88R FOG

$$

INZ033-034-041-042-049-050-058-059-261200-
EAST CENTRAL INDIANA

CITY           SKY/WX    TMP DP  RH WIND       PRES   REMARKS
MUNCIE         CLOUDY    55  52  89 SW7       29.86R FOG
RICHMOND +     CLOUDY    52  52 100 W7        29.88R FOG

$$

INZ060-061-067>069-081>083-085>088-261200-
SOUTHWEST INDIANA

CITY           SKY/WX    TMP DP  RH WIND       PRES   REMARKS
EVANSVILLE     PTCLDY    56  52  86 CALM      29.89R
HUNTINGBURG *+ CLEAR     54  53  97 SE5       29.90R

$$

INZ062-063-066-070>080-084-089>092-261200-
SOUTH CENTRAL AND SOUTHEAST INDIANA

CITY           SKY/WX    TMP DP  RH WIND       PRES   REMARKS
BLOOMINGTON    CLEAR     51  48  89 CALM      29.88R FOG
MADISON *+       N/A     52  50  93 CALM      29.92R
SEYMOUR +      CLEAR     52  52 100 CALM      29.89R FOG

$$




USA.gov is the U.S. government's official web portal to all federal, state and local government web resources and services.